QPF
0.00 0.00 0.00 0.00 0.00 0.00 0.00 0.00 0.00 0.00 0.00 0.00 0.00 0.00 0.00 0.00 0.00 0.00 0.00 0.00 0.00 0.00 0.00 0.00 0.00 0.00 0.00 0.00 0.01 0.03 0.01 0.03 0.05 0.10 0.16 0.03 0.00 0.00 0.00 0.00 0.00 0.00 0.00 0.00 0.00
0.00 0.00 0.00 0.00 0.00 0.00 0.00 0.00 0.00 0.00 0.00 0.00 0.00 0.00 0.00 0.00 0.00 0.00 0.00 0.00 0.00 0.00 0.00 0.00 0.00 0.00 0.00 0.00 0.00 0.00 0.00 0.01 0.06 0.06 0.11 0.08 0.01 0.00 0.00 0.00 0.00 0.00 0.00 0.00 0.00
0.00 0.00 0.00 0.00 0.00 0.00 0.00 0.00 0.00 0.00 0.00 0.00 0.00 0.00 0.00 0.00 0.00 0.00 0.00 0.00 0.00 0.00 0.00 0.00 0.00 0.00 0.00 0.00 0.00 0.00 0.00 0.00 0.03 0.05 0.08 0.08 0.03 0.00 0.00 0.00 0.00 0.00 0.00 0.00 0.00
0.00 0.00 0.00 0.00 0.00 0.00 0.00 0.00 0.00 0.00 0.00 0.00 0.00 0.00 0.00 0.00 0.00 0.00 0.00 0.00 0.00 0.00 0.00 0.00 0.00 0.00 0.00 0.00 0.00 0.00 0.00 0.00 0.02 0.14 0.11 0.04 0.04 0.01 0.00 0.00 0.00 0.00 0.00 0.00 0.00
0.00 0.00 0.00 0.00 0.00 0.00 0.00 0.00 0.00 0.00 0.00 0.00 0.00 0.00 0.00 0.00 0.00 0.00 0.00 0.00 0.00 0.00 0.00 0.00 0.00 0.00 0.00 0.00 0.00 0.00 0.00 0.00 0.00 0.09 0.06 0.02 0.03 0.03 0.00 0.00 0.00 0.00 0.00 0.00 0.00
0.00 0.00 0.00 0.00 0.00 0.00 0.00 0.00 0.00 0.00 0.00 0.00 0.00 0.00 0.00 0.00 0.00 0.00 0.00 0.00 0.00 0.00 0.00 0.00 0.00 0.00 0.00 0.00 0.00 0.00 0.00 0.00 0.00 0.06 0.00 0.04 0.03 0.06 0.01 0.00 0.00 0.00 0.00 0.00 0.00
0.00 0.00 0.00 0.00 0.00 0.00 0.00 0.00 0.00 0.00 0.00 0.00 0.00 0.00 0.00 0.00 0.00 0.00 0.00 0.00 0.00 0.00 0.00 0.00 0.00 0.00 0.00 0.00 0.00 0.00 0.00 0.00 0.03 0.03 0.05 0.03 0.02 0.01 0.00 0.00 0.00 0.00 0.00 0.00 0.00
0.00 0.00 0.00 0.00 0.00 0.00 0.00 0.00 0.00 0.00 0.00 0.00 0.00 0.00 0.00 0.00 0.00 0.00 0.00 0.00 0.00 0.00 0.00 0.00 0.00 0.00 0.00 0.00 0.00 0.00 0.00 0.00 0.04 0.11 0.15 0.04 0.00 0.00 0.00 0.00 0.00 0.00 0.00 0.00 0.00
0.00 0.00 0.00 0.00 0.00 0.00 0.00 0.00 0.00 0.00 0.00 0.00 0.00 0.00 0.00 0.00 0.00 0.00 0.00 0.00 0.00 0.00 0.00 0.00 0.00 0.00 0.00 0.00 0.00 0.00 0.00 0.01 0.12 0.08 0.14 0.06 0.00 0.00 0.00 0.00 0.00 0.00 0.00 0.00 0.00
0.00 0.00 0.00 0.00 0.00 0.00 0.00 0.00 0.00 0.00 0.00 0.00 0.00 0.00 0.00 0.00 0.00 0.00 0.00 0.00 0.00 0.00 0.00 0.00 0.00 0.00 0.00 0.00 0.00 0.00 0.00 0.00 0.05 0.22 0.21 0.10 0.00 0.00 0.00 0.00 0.00 0.00 0.00 0.00 0.00
0.00 0.00 0.00 0.00 0.00 0.00 0.00 0.00 0.00 0.00 0.00 0.00 0.00 0.00 0.00 0.00 0.00 0.00 0.00 0.00 0.00 0.00 0.00 0.00 0.00 0.00 0.00 0.00 0.00 0.00 0.00 0.03 0.04 0.09 0.05 0.03 0.01 0.00 0.00 0.00 0.00 0.00 0.00 0.00 0.00
0.00 0.00 0.00 0.00 0.00 0.00 0.00 0.00 0.00 0.00 0.00 0.00 0.00 0.00 0.00 0.00 0.00 0.00 0.00 0.00 0.00 0.00 0.00 0.00 0.00 0.00 0.00 0.00 0.00 0.00 0.00 0.00 0.01 0.04 0.03 0.04 0.04 0.03 0.01 0.01 0.00 0.00 0.00 0.00 0.00
0.00 0.00 0.00 0.00 0.00 0.00 0.00 0.00 0.00 0.00 0.00 0.00 0.00 0.00 0.00 0.00 0.00 0.00 0.00 0.00 0.00 0.00 0.00 0.00 0.00 0.00 0.00 0.00 0.00 0.00 0.00 0.00 0.00 0.00 0.00 0.07 0.12 0.14 0.09 0.08 0.07 0.03 0.00 0.00 0.00
0.00 0.00 0.00 0.00 0.00 0.00 0.00 0.00 0.00 0.00 0.00 0.00 0.00 0.00 0.00 0.00 0.00 0.00 0.00 0.00 0.00 0.00 0.00 0.00 0.00 0.00 0.00 0.00 0.00 0.00 0.00 0.00 0.00 0.00 0.00 0.00 0.00 0.06 0.10 0.09 0.08 0.02 0.00 0.00 0.00
0.00 0.00 0.00 0.00 0.00 0.00 0.00 0.00 0.00 0.00 0.00 0.00 0.00 0.00 0.00 0.00 0.00 0.00 0.00 0.00 0.00 0.00 0.00 0.00 0.00 0.00 0.00 0.00 0.00 0.00 0.00 0.00 0.00 0.00 0.00 0.00 0.00 0.00 0.06 0.08 0.05 0.00 0.00 0.00 0.00
0.00 0.00 0.00 0.00 0.00 0.00 0.00 0.00 0.00 0.00 0.00 0.00 0.00 0.00 0.00 0.00 0.00 0.00 0.00 0.00 0.00 0.00 0.00 0.00 0.00 0.00 0.00 0.00 0.00 0.00 0.00 0.00 0.00 0.02 0.01 0.00 0.00 0.00 0.01 0.01 0.00 0.00 0.00 0.00 0.00
0.00 0.00 0.00 0.00 0.00 0.00 0.00 0.00 0.00 0.00 0.00 0.00 0.00 0.00 0.00 0.00 0.00 0.00 0.00 0.00 0.00 0.00 0.00 0.00 0.00 0.00 0.00 0.00 0.00 0.00 0.00 0.01 0.03 0.01 0.00 0.00 0.00 0.00 0.00 0.00 0.00 0.00 0.02 0.00 0.00
0.00 0.00 0.00 0.00 0.00 0.00 0.00 0.00 0.00 0.00 0.00 0.00 0.00 0.00 0.00 0.00 0.00 0.00 0.00 0.00 0.00 0.00 0.00 0.00 0.00 0.00 0.00 0.00 0.00 0.00 0.00 0.00 0.00 0.00 0.00 0.00 0.00 0.00 0.00 0.00 0.00 0.03 0.04 0.00 0.00
0.00 0.00 0.00 0.00 0.00 0.00 0.00 0.00 0.00 0.00 0.00 0.00 0.00 0.00 0.00 0.00 0.00 0.00 0.00 0.00 0.00 0.00 0.00 0.00 0.00 0.00 0.00 0.00 0.00 0.00 0.00 0.00 0.00 0.00 0.00 0.01 0.00 0.00 0.00 0.00 0.03 0.12 0.07 0.05 0.07
0.00 0.00 0.00 0.00 0.00 0.00 0.00 0.00 0.00 0.00 0.00 0.00 0.00 0.00 0.00 0.00 0.00 0.00 0.00 0.00 0.00 0.00 0.00 0.00 0.00 0.00 0.00 0.00 0.00 0.00 0.00 0.00 0.00 0.00 0.00 0.01 0.00 0.00 0.00 0.00 0.04 0.05 0.05 0.06 0.13
0.00 0.00 0.00 0.00 0.00 0.00 0.00 0.00 0.00 0.00 0.00 0.00 0.00 0.00 0.00 0.00 0.00 0.00 0.00 0.00 0.00 0.00 0.00 0.00 0.00 0.00 0.00 0.00 0.00 0.00 0.00 0.00 0.00 0.00 0.00 0.01 0.01 0.01 0.00 0.00 0.01 0.01 0.01 0.02 0.11
0.00 0.00 0.00 0.00 0.00 0.00 0.00 0.00 0.00 0.00 0.00 0.00 0.00 0.00 0.00 0.00 0.00 0.00 0.00 0.00 0.00 0.00 0.00 0.00 0.00 0.00 0.00 0.00 0.00 0.00 0.00 0.00 0.00 0.00 0.00 0.01 0.00 0.02 0.01 0.02 0.04 0.06 0.05 0.06 0.10
0.00 0.00 0.00 0.00 0.00 0.00 0.00 0.00 0.00 0.00 0.00 0.00 0.00 0.00 0.00 0.00 0.00 0.00 0.00 0.00 0.00 0.00 0.00 0.00 0.00 0.00 0.00 0.00 0.00 0.00 0.00 0.00 0.00 0.00 0.00 0.00 0.01 0.03 0.04 0.05 0.07 0.08 0.13 0.14 0.09
0.00 0.00 0.00 0.00 0.00 0.00 0.00 0.00 0.00 0.00 0.00 0.00 0.00 0.00 0.00 0.00 0.00 0.00 0.00 0.00 0.00 0.00 0.00 0.00 0.00 0.00 0.00 0.00 0.00 0.00 0.00 0.00 0.00 0.00 0.00 0.00 0.01 0.02 0.01 0.04 0.08 0.10 0.09 0.07 0.06
0.00 0.00 0.00 0.00 0.00 0.00 0.00 0.00 0.00 0.00 0.00 0.00 0.00 0.00 0.00 0.00 0.00 0.00 0.00 0.00 0.00 0.00 0.00 0.00 0.00 0.00 0.00 0.00 0.00 0.00 0.00 0.00 0.00 0.00 0.00 0.00 0.00 0.00 0.00 0.00 0.01 0.01 0.01 0.02 0.04
0.00 0.00 0.00 0.00 0.00 0.00 0.00 0.00 0.00 0.00 0.00 0.00 0.00 0.00 0.00 0.00 0.00 0.00 0.00 0.00 0.00 0.00 0.00 0.00 0.00 0.00 0.00 0.00 0.00 0.00 0.00 0.00 0.00 0.00 0.00 0.00 0.00 0.00 0.00 0.00 0.00 0.00 0.00 0.00 0.00
0.00 0.00 0.00 0.00 0.00 0.00 0.00 0.00 0.00 0.00 0.00 0.00 0.00 0.00 0.00 0.00 0.00 0.00 0.00 0.00 0.00 0.00 0.00 0.00 0.00 0.00 0.00 0.00 0.00 0.00 0.00 0.00 0.00 0.00 0.00 0.00 0.00 0.00 0.00 0.00 0.00 0.00 0.00 0.00 0.00
MSLP
1016.55 1016.33 1016.10 1015.91 1015.71 1015.53 1015.27 1015.05 1014.84 1014.57 1014.34 1014.21 1013.98 1013.67 1013.40 1013.13 1012.68 1012.54 1011.60 1009.03 1009.00 1008.75 1008.75 1009.51 1009.94 1010.00 1010.09 1010.22 1010.11 1010.67 1010.89 1010.85 1010.67 1010.49 1011.19 1010.96 1011.05 1010.39 1010.66 1010.57 1010.49 1010.89 1012.10 1013.45 1014.51
1016.56 1016.23 1015.96 1015.78 1015.57 1015.37 1015.18 1014.96 1014.73 1014.50 1014.27 1014.07 1013.88 1013.67 1013.30 1012.99 1012.69 1011.35 1008.04 1008.16 1008.43 1008.49 1008.87 1009.34 1009.76 1010.01 1010.20 1010.12 1010.16 1010.53 1010.95 1010.91 1010.86 1011.13 1011.01 1011.18 1010.86 1010.53 1011.01 1011.14 1011.21 1011.54 1013.06 1014.12 1015.06
1016.25 1016.09 1015.87 1015.65 1015.40 1015.13 1014.91 1014.73 1014.55 1014.36 1014.16 1014.00 1013.77 1013.60 1013.26 1013.00 1012.16 1008.37 1006.49 1007.47 1008.06 1008.52 1008.65 1008.95 1009.30 1009.78 1010.07 1009.97 1010.10 1010.34 1010.57 1010.77 1010.80 1010.57 1010.02 1010.81 1011.19 1011.10 1011.30 1011.52 1011.41 1011.76 1013.02 1014.39 1015.26
1016.08 1015.83 1015.59 1015.37 1015.15 1015.00 1014.78 1014.57 1014.33 1014.11 1013.97 1013.81 1013.62 1013.44 1013.13 1012.99 1010.49 1006.61 1006.39 1006.88 1007.91 1008.46 1008.84 1009.15 1009.45 1009.83 1009.87 1009.82 1009.72 1010.09 1010.19 1010.31 1010.60 1010.19 1010.39 1010.76 1011.17 1011.62 1011.29 1011.37 1011.45 1011.90 1012.79 1014.07 1014.98
1015.85 1015.57 1015.37 1015.16 1014.89 1014.60 1014.46 1014.33 1014.13 1013.95 1013.77 1013.63 1013.44 1013.24 1013.07 1012.23 1009.09 1006.39 1006.06 1006.90 1007.98 1008.59 1008.82 1009.01 1009.34 1009.48 1009.51 1009.43 1009.54 1009.73 1009.83 1009.96 1010.19 1010.26 1010.70 1010.99 1011.35 1011.75 1011.73 1011.52 1011.71 1012.13 1013.12 1014.10 1014.51
1015.61 1015.35 1015.11 1014.75 1014.53 1014.28 1014.05 1013.89 1013.83 1013.66 1013.59 1013.48 1013.27 1013.15 1013.03 1010.93 1006.85 1006.43 1006.79 1007.26 1007.73 1008.50 1008.76 1008.73 1008.62 1008.86 1009.15 1009.02 1009.01 1008.59 1009.11 1009.39 1009.97 1010.36 1010.58 1011.01 1011.74 1011.91 1011.73 1011.59 1011.63 1012.34 1013.11 1013.87 1014.31
1015.34 1014.97 1014.62 1014.42 1014.18 1013.92 1013.72 1013.57 1013.47 1013.41 1013.34 1013.30 1013.11 1012.96 1012.35 1008.77 1007.04 1006.85 1007.11 1007.47 1007.56 1007.93 1008.59 1008.50 1008.48 1008.67 1008.88 1008.71 1008.24 1008.05 1009.02 1009.37 1009.77 1010.00 1010.67 1010.78 1011.75 1011.91 1011.65 1011.73 1011.56 1012.19 1013.03 1013.55 1014.12
1015.17 1014.80 1014.57 1014.11 1013.89 1013.60 1013.47 1013.38 1013.21 1013.02 1013.11 1013.01 1013.04 1012.77 1010.75 1007.51 1007.22 1007.32 1007.26 1007.47 1007.77 1008.11 1008.40 1008.41 1008.41 1008.74 1008.73 1008.43 1008.21 1008.25 1008.70 1009.34 1009.49 1009.71 1010.45 1010.39 1011.45 1011.67 1011.96 1012.01 1011.73 1012.06 1012.65 1013.39 1013.79
1015.05 1014.64 1014.18 1014.03 1013.68 1013.45 1013.20 1013.12 1012.83 1012.58 1012.78 1012.77 1012.99 1012.52 1009.48 1007.09 1007.04 1006.27 1006.76 1007.03 1007.61 1008.34 1008.52 1008.43 1008.55 1008.82 1008.65 1008.85 1008.99 1009.07 1009.09 1009.29 1009.74 1009.75 1010.21 1011.05 1011.50 1011.78 1011.99 1011.99 1011.84 1011.77 1012.40 1012.90 1013.56
1014.82 1014.49 1014.05 1013.59 1013.50 1013.29 1012.98 1012.74 1012.57 1012.52 1012.64 1012.61 1012.33 1012.03 1008.63 1006.81 1006.00 1005.81 1006.17 1006.60 1007.39 1008.14 1008.53 1008.43 1008.67 1009.00 1009.26 1009.19 1009.60 1009.59 1009.33 1009.26 1009.45 1010.21 1010.81 1011.77 1011.58 1011.82 1011.90 1012.17 1012.16 1012.12 1012.34 1012.68 1013.36
1014.34 1014.23 1014.02 1013.61 1013.24 1013.22 1013.13 1012.77 1012.83 1012.42 1011.97 1010.45 1009.61 1008.75 1007.37 1006.15 1005.53 1005.45 1005.75 1006.67 1006.99 1007.61 1008.23 1008.51 1009.08 1008.92 1008.95 1008.91 1009.09 1009.28 1009.52 1010.03 1010.64 1011.19 1011.59 1011.63 1012.40 1012.32 1012.41 1012.53 1012.41 1012.38 1012.48 1012.69 1013.17
1014.28 1013.65 1013.53 1013.33 1013.18 1013.03 1013.37 1012.55 1010.77 1010.17 1009.83 1008.55 1008.21 1007.95 1006.83 1006.49 1006.30 1005.32 1005.45 1006.74 1006.93 1007.49 1007.95 1008.72 1008.64 1008.18 1008.41 1008.57 1008.90 1009.23 1009.63 1010.91 1011.79 1011.78 1012.11 1012.34 1012.46 1012.77 1012.87 1012.76 1012.55 1012.45 1012.55 1012.58 1013.30
1013.82 1013.63 1013.23 1012.95 1012.82 1012.92 1012.41 1011.11 1009.67 1009.61 1009.81 1007.80 1007.33 1006.73 1005.73 1006.07 1005.74 1005.27 1005.31 1006.05 1006.66 1007.41 1007.89 1008.26 1007.86 1007.55 1007.91 1008.21 1008.62 1009.00 1009.45 1010.47 1011.09 1012.00 1012.45 1012.72 1013.01 1013.12 1013.02 1012.84 1012.63 1012.51 1012.49 1012.44 1012.95
1013.61 1013.29 1012.92 1012.70 1012.99 1011.99 1011.10 1009.67 1009.39 1009.43 1009.50 1007.82 1006.56 1005.10 1005.09 1005.09 1004.88 1004.61 1004.92 1005.67 1006.21 1006.92 1007.75 1007.84 1007.37 1007.38 1007.62 1007.91 1008.15 1008.59 1008.43 1009.55 1010.88 1011.91 1012.10 1011.73 1013.09 1012.84 1012.67 1012.50 1012.41 1012.34 1012.31 1012.38 1012.83
1013.21 1012.93 1012.57 1012.58 1012.69 1011.60 1009.47 1009.03 1008.97 1009.24 1008.85 1007.19 1005.81 1004.44 1004.57 1004.71 1004.27 1004.38 1004.55 1005.17 1005.94 1006.57 1007.39 1007.49 1007.03 1007.03 1007.15 1007.13 1007.51 1007.58 1008.07 1008.79 1010.41 1011.66 1011.94 1012.49 1013.02 1012.75 1012.41 1012.88 1012.45 1012.01 1011.85 1011.93 1012.26
1012.84 1012.72 1012.27 1012.35 1012.33 1009.77 1009.03 1008.81 1008.76 1009.73 1008.91 1007.41 1006.10 1005.53 1005.15 1004.70 1004.51 1004.51 1004.74 1004.99 1005.64 1006.50 1006.97 1007.12 1006.53 1006.53 1006.19 1006.11 1006.71 1006.89 1008.39 1009.48 1011.07 1012.13 1012.58 1011.72 1012.16 1012.51 1011.58 1010.79 1010.86 1011.11 1011.05 1011.25 1011.73
1012.48 1012.17 1012.27 1011.25 1009.96 1009.00 1008.96 1008.99 1009.95 1009.96 1009.28 1008.36 1007.21 1006.51 1006.24 1005.57 1005.24 1005.04 1005.41 1005.91 1006.39 1007.19 1007.44 1007.08 1006.41 1005.71 1005.51 1006.04 1006.35 1006.94 1008.56 1010.83 1012.25 1013.02 1012.49 1011.41 1011.94 1010.67 1010.64 1009.80 1009.04 1010.11 1010.69 1011.07 1011.67
1011.44 1011.19 1010.95 1009.98 1009.22 1009.10 1009.52 1010.08 1010.88 1010.47 1009.65 1008.73 1007.82 1006.89 1006.63 1005.95 1005.75 1005.68 1005.98 1006.65 1006.91 1007.17 1007.90 1007.62 1006.46 1005.31 1004.99 1005.38 1005.82 1006.65 1007.65 1009.45 1010.96 1012.18 1012.21 1012.01 1011.61 1010.69 1010.04 1009.49 1010.03 1010.25 1011.33 1011.68 1012.18
1010.86 1010.78 1010.58 1008.69 1008.97 1009.65 1010.33 1011.20 1011.47 1010.81 1009.67 1008.99 1008.12 1007.74 1007.49 1006.65 1006.51 1006.21 1006.56 1007.05 1006.86 1006.90 1007.67 1007.53 1006.45 1005.01 1004.53 1004.41 1004.97 1006.41 1007.25 1007.89 1009.91 1011.29 1011.80 1012.09 1011.58 1011.06 1010.50 1010.50 1010.69 1011.41 1012.22 1012.78 1012.88
1011.47 1010.69 1009.45 1008.37 1008.59 1009.43 1010.69 1011.90 1011.61 1010.57 1009.63 1009.06 1008.90 1008.87 1008.79 1008.03 1007.40 1007.11 1007.33 1007.53 1007.09 1006.77 1006.70 1007.30 1007.05 1005.53 1004.60 1004.39 1004.96 1005.31 1006.37 1008.19 1009.74 1011.58 1012.59 1012.74 1012.39 1012.15 1012.06 1011.86 1011.93 1012.34 1013.07 1013.53 1013.87
1011.58 1010.91 1009.23 1008.58 1008.86 1010.69 1012.03 1011.95 1011.08 1009.75 1009.43 1009.10 1008.99 1009.05 1009.33 1009.05 1008.33 1007.95 1008.10 1007.62 1007.18 1006.97 1006.88 1007.40 1007.68 1006.54 1005.52 1005.37 1005.53 1005.93 1006.74 1008.27 1009.79 1011.06 1012.25 1013.15 1012.92 1012.33 1012.44 1012.39 1012.65 1013.17 1013.61 1014.11 1014.41
1011.70 1011.22 1009.66 1008.75 1010.17 1011.97 1012.21 1011.53 1010.59 1009.71 1008.96 1008.88 1008.92 1009.31 1009.41 1009.32 1009.11 1008.53 1008.30 1007.81 1007.08 1006.99 1007.70 1007.96 1008.25 1007.90 1006.86 1005.99 1005.94 1006.01 1006.82 1007.83 1009.61 1011.52 1012.39 1012.97 1013.35 1012.85 1012.85 1013.01 1013.23 1013.81 1014.31 1014.59 1014.97
1012.48 1011.66 1009.70 1009.43 1011.03 1011.89 1011.83 1011.24 1010.60 1009.80 1009.52 1009.31 1009.52 1009.56 1009.64 1009.90 1009.71 1009.25 1008.61 1007.81 1007.37 1007.35 1007.97 1008.13 1009.05 1008.74 1007.81 1007.25 1006.65 1007.09 1007.51 1008.04 1008.91 1010.09 1011.89 1012.86 1013.54 1013.25 1013.47 1013.70 1013.84 1014.05 1014.75 1015.23 1015.62
1012.76 1012.33 1011.44 1011.07 1011.63 1011.74 1011.67 1011.43 1010.64 1010.02 1010.06 1009.89 1010.09 1009.75 1009.99 1010.42 1010.23 1010.15 1009.07 1008.58 1008.12 1008.22 1008.31 1008.53 1010.00 1009.78 1009.47 1009.14 1008.76 1008.37 1008.18 1008.13 1008.83 1010.30 1011.77 1012.31 1012.87 1013.38 1013.87 1014.33 1014.58 1014.85 1015.47 1015.94 1016.46
1012.57 1012.92 1012.34 1012.35 1012.15 1011.72 1011.49 1011.51 1011.06 1010.81 1010.68 1010.41 1010.56 1010.76 1010.59 1011.21 1011.13 1010.73 1009.98 1009.50 1008.87 1008.89 1008.98 1009.42 1010.67 1010.49 1009.99 1009.59 1008.92 1008.85 1008.57 1008.37 1008.92 1009.61 1010.37 1011.84 1012.21 1012.81 1013.54 1014.57 1015.44 1015.53 1015.11 1016.51 1017.06
1013.11 1012.99 1012.29 1012.29 1012.16 1011.86 1011.77 1011.87 1011.43 1011.34 1011.38 1011.51 1011.57 1011.54 1011.15 1011.72 1011.84 1011.60 1011.12 1010.93 1010.99 1010.25 1010.33 1010.67 1011.19 1011.16 1010.99 1010.07 1009.55 1009.37 1008.95 1008.87 1009.19 1009.77 1010.35 1011.55 1012.55 1013.01 1013.77 1014.76 1015.29 1015.63 1016.03 1016.34 1017.63
1012.91 1012.56 1012.62 1013.04 1012.75 1012.43 1012.33 1011.81 1011.63 1011.55 1011.97 1011.80 1011.65 1011.71 1011.84 1011.85 1011.82 1011.67 1011.69 1011.52 1011.58 1011.72 1011.50 1011.69 1012.01 1012.20 1012.26 1011.07 1010.30 1010.31 1010.09 1010.02 1009.99 1010.00 1009.81 1011.53 1011.93 1013.13 1014.48 1014.97 1015.49 1016.14 1016.59 1017.40 1017.99
Thickness
5703 5702 5701 5702 5703 5705 5708 5711 5714 5717 5721 5725 5728 5732 5736 5739 5744 5746 5750 5778 5783 5788 5791 5784 5779 5779 5783 5776 5781 5774 5750 5742 5753 5756 5750 5753 5762 5778 5780 5779 5788 5788 5776 5770 5772
5697 5696 5696 5696 5696 5698 5701 5704 5708 5712 5716 5720 5724 5728 5734 5738 5741 5747 5784 5785 5786 5788 5784 5775 5770 5773 5769 5772 5773 5763 5745 5745 5761 5758 5759 5764 5772 5773 5775 5775 5774 5776 5775 5770 5767
5694 5691 5689 5689 5690 5692 5694 5697 5701 5705 5710 5714 5719 5723 5729 5734 5740 5766 5794 5788 5786 5784 5785 5784 5781 5774 5768 5774 5769 5766 5752 5758 5763 5767 5760 5768 5766 5769 5769 5763 5773 5769 5767 5765 5763
5689 5687 5686 5685 5685 5685 5686 5689 5693 5698 5704 5708 5714 5718 5724 5728 5738 5782 5791 5790 5784 5783 5780 5778 5774 5764 5762 5763 5773 5759 5770 5766 5761 5772 5771 5767 5772 5762 5770 5774 5783 5782 5776 5769 5765
5684 5683 5683 5682 5682 5682 5683 5684 5686 5690 5695 5701 5707 5713 5718 5725 5743 5783 5790 5786 5781 5778 5772 5771 5765 5764 5760 5768 5770 5764 5771 5777 5770 5770 5768 5771 5766 5760 5765 5778 5786 5783 5775 5767 5770
5681 5679 5678 5679 5679 5681 5682 5682 5683 5685 5688 5693 5700 5706 5711 5717 5770 5778 5780 5780 5778 5773 5771 5773 5769 5770 5769 5771 5769 5781 5777 5777 5771 5769 5770 5765 5761 5765 5770 5780 5783 5777 5774 5771 5772
5677 5677 5676 5675 5675 5676 5678 5679 5680 5682 5683 5686 5692 5699 5705 5728 5763 5769 5772 5771 5776 5774 5765 5769 5773 5768 5773 5768 5787 5787 5767 5775 5771 5775 5763 5772 5752 5754 5772 5776 5782 5777 5774 5774 5773
5672 5671 5669 5671 5671 5672 5672 5673 5676 5678 5679 5682 5685 5693 5702 5748 5756 5759 5764 5764 5768 5770 5768 5770 5772 5767 5768 5780 5779 5777 5771 5753 5770 5775 5767 5774 5738 5759 5768 5770 5777 5780 5777 5771 5775
5667 5667 5667 5664 5666 5666 5668 5668 5672 5675 5674 5677 5678 5685 5700 5742 5742 5758 5761 5757 5757 5756 5761 5768 5768 5757 5768 5757 5746 5752 5737 5757 5754 5776 5768 5761 5743 5757 5763 5768 5774 5784 5777 5777 5774
5666 5664 5664 5665 5662 5661 5663 5665 5668 5670 5669 5672 5677 5680 5710 5726 5740 5750 5757 5757 5748 5746 5745 5751 5749 5739 5741 5741 5720 5736 5746 5760 5758 5763 5761 5747 5748 5757 5763 5768 5772 5777 5777 5779 5774
5668 5663 5660 5660 5661 5658 5656 5659 5661 5664 5668 5682 5692 5700 5711 5731 5743 5742 5749 5743 5745 5739 5723 5739 5728 5725 5744 5754 5752 5752 5752 5740 5744 5753 5744 5735 5743 5749 5760 5763 5766 5770 5770 5776 5775
5665 5667 5663 5659 5656 5655 5649 5655 5670 5676 5668 5689 5694 5696 5712 5721 5712 5730 5745 5726 5729 5718 5728 5719 5719 5747 5754 5754 5750 5749 5747 5727 5734 5748 5745 5733 5742 5749 5755 5757 5762 5766 5767 5775 5773
5668 5664 5662 5659 5655 5650 5650 5661 5674 5676 5658 5682 5690 5696 5708 5713 5707 5717 5733 5727 5721 5715 5717 5713 5737 5750 5749 5747 5741 5742 5740 5730 5734 5741 5741 5729 5731 5739 5751 5758 5763 5767 5769 5776 5773
5666 5664 5661 5656 5651 5655 5656 5668 5670 5671 5639 5665 5683 5701 5709 5712 5707 5730 5732 5726 5720 5710 5713 5719 5738 5741 5738 5736 5741 5732 5757 5753 5738 5725 5723 5753 5710 5728 5741 5749 5757 5762 5767 5770 5773
5666 5664 5662 5654 5646 5652 5668 5671 5672 5664 5619 5671 5678 5711 5707 5701 5712 5716 5732 5724 5706 5713 5712 5713 5727 5728 5729 5741 5750 5747 5762 5757 5744 5726 5729 5732 5717 5729 5739 5731 5742 5761 5769 5772 5777
5667 5662 5661 5655 5647 5665 5669 5671 5668 5631 5625 5652 5670 5669 5683 5697 5705 5711 5715 5725 5724 5712 5717 5716 5738 5737 5742 5755 5757 5770 5745 5737 5725 5714 5704 5740 5730 5720 5735 5752 5757 5765 5776 5780 5779
5668 5664 5658 5661 5667 5670 5669 5662 5626 5614 5648 5646 5654 5663 5664 5673 5686 5695 5692 5689 5682 5673 5683 5704 5719 5742 5751 5739 5750 5746 5718 5681 5684 5688 5701 5731 5730 5748 5756 5772 5782 5775 5777 5781 5780
5673 5671 5668 5671 5672 5670 5663 5641 5613 5635 5637 5650 5657 5663 5660 5675 5679 5684 5680 5675 5692 5691 5675 5676 5690 5730 5750 5740 5731 5728 5727 5693 5684 5684 5706 5725 5721 5745 5763 5780 5778 5783 5771 5772 5772
5676 5672 5669 5679 5673 5665 5647 5610 5618 5627 5645 5647 5652 5647 5645 5668 5676 5681 5676 5670 5688 5693 5677 5676 5694 5738 5751 5756 5753 5736 5722 5743 5708 5718 5708 5711 5737 5749 5761 5763 5768 5763 5762 5761 5766
5667 5672 5674 5680 5675 5663 5634 5617 5621 5636 5645 5648 5637 5641 5634 5648 5662 5666 5667 5673 5680 5700 5708 5699 5685 5726 5742 5755 5753 5746 5749 5718 5707 5694 5695 5699 5712 5715 5734 5746 5752 5754 5752 5753 5755
5667 5666 5678 5680 5673 5642 5617 5616 5629 5644 5645 5644 5641 5639 5638 5640 5655 5659 5655 5675 5685 5692 5699 5697 5689 5706 5729 5726 5725 5733 5726 5717 5712 5704 5688 5683 5703 5738 5738 5747 5747 5748 5749 5750 5752
5661 5653 5676 5680 5644 5615 5622 5627 5640 5643 5649 5646 5651 5646 5643 5645 5645 5655 5659 5670 5688 5693 5683 5691 5677 5682 5709 5727 5734 5736 5729 5721 5699 5700 5687 5687 5700 5731 5736 5741 5743 5740 5743 5747 5746
5654 5651 5673 5672 5631 5623 5629 5635 5639 5640 5640 5644 5642 5648 5648 5642 5643 5653 5662 5682 5686 5688 5682 5691 5667 5668 5686 5703 5718 5711 5718 5714 5709 5705 5691 5682 5694 5724 5729 5731 5736 5737 5737 5736 5737
5651 5646 5652 5649 5634 5632 5632 5629 5632 5641 5636 5637 5636 5646 5643 5634 5640 5645 5656 5671 5683 5681 5689 5686 5660 5665 5655 5673 5687 5697 5705 5717 5710 5695 5683 5687 5705 5714 5719 5720 5723 5725 5725 5725 5723
5650 5643 5644 5631 5636 5638 5635 5632 5627 5623 5631 5630 5629 5627 5638 5625 5629 5634 5649 5655 5673 5677 5681 5674 5660 5670 5676 5681 5696 5696 5702 5716 5715 5714 5708 5700 5706 5714 5721 5718 5712 5717 5723 5711 5712
5643 5641 5643 5635 5637 5638 5625 5625 5626 5625 5624 5620 5618 5623 5626 5622 5627 5630 5636 5639 5644 5660 5664 5663 5655 5665 5659 5677 5684 5686 5697 5703 5704 5703 5701 5702 5697 5711 5718 5709 5712 5714 5709 5705 5701
5646 5648 5642 5629 5628 5628 5622 5630 5628 5626 5622 5625 5626 5620 5618 5624 5631 5639 5641 5640 5645 5645 5649 5648 5647 5645 5648 5660 5673 5662 5678 5685 5692 5702 5711 5694 5706 5704 5700 5704 5705 5705 5704 5696 5695